IU7LMH-13 Weather Reports


Display with metric or nautical units.
time (UTC)temp
F
wind
direction
speed
MPH
gust
MPH
rain 1hr
in
rain 24hr
in
rain mn
in
humidity
%
barometer
mb
20260902083643 93 90 3.0 4.0 0.00 0.00 0.00 46 1017.7
20260902083446 93 45 2.0 4.0 0.00 0.00 0.00 46 1018.0
20260902083243 93 338 2.0 2.0 0.00 0.00 0.00 47 1017.8
20260902083051 92 338 2.0 4.0 0.00 0.00 0.00 47 1017.8
20260902082843 92 0 1.0 2.0 0.00 0.00 0.00 47 1017.9
20260902082642 93 22 2.0 2.0 0.00 0.00 0.00 47 1017.8
20260902082444 93 22 2.0 4.0 0.00 0.00 0.00 46 1017.9
20260902082045 92 45 1.0 2.0 0.00 0.00 0.00 48 1018.0
20260902081842 91 292 2.0 4.0 0.00 0.00 0.00 48 1017.8
20260902081444 92 292 1.0 2.0 0.00 0.00 0.00 48 1017.9
20260902081242 92 45 3.0 4.0 0.00 0.00 0.00 48 1017.9
20260902081049 92 68 2.0 4.0 0.00 0.00 0.00 48 1017.8
20260902080842 91 338 1.0 2.0 0.00 0.00 0.00 48 1017.9
20260902080643 91 315 2.0 4.0 0.00 0.00 0.00 48 1018.0
20260902080444 91 0 3.0 4.0 0.00 0.00 0.00 49 1018.1
20260902080241 91 68 2.0 4.0 0.00 0.00 0.00 48 1018.1
20260902080051 91 0 1.0 2.0 0.00 0.00 0.00 48 1017.9
20260902075842 90 315 1.0 4.0 0.00 0.00 0.00 49 1018.0
20260902075642 91 315 2.0 4.0 0.00 0.00 0.00 49 1017.9
20260902075444 90 315 2.0 4.0 0.00 0.00 0.00 49 1018.0
20260902075242 90 292 2.0 4.0 0.00 0.00 0.00 50 1018.0
20260902075047 89 292 2.0 6.0 0.00 0.00 0.00 51 1018.0
20260902074841 89 315 2.0 4.0 0.00 0.00 0.00 51 1017.8
20260902074642 89 315 3.0 4.0 0.00 0.00 0.00 52 1018.0
20260902074445 89 292 3.0 4.0 0.00 0.00 0.00 52 1018.0
20260902074242 89 292 3.0 6.0 0.00 0.00 0.00 51 1018.0
20260902073641 89 338 2.0 2.0 0.00 0.00 0.00 55 1018.1
20260902073445 89 292 1.0 2.0 0.00 0.00 0.00 55 1018.0
20260902073242 89 0 1.0 2.0 0.00 0.00 0.00 56 1017.9
20260902073051 88 248 2.0 2.0 0.00 0.00 0.00 57 1017.8
20260902072842 88 270 3.0 4.0 0.00 0.00 0.00 56 1017.9
20260902072644 88 248 4.0 4.0 0.00 0.00 0.00 57 1017.9
20260902072443 88 292 2.0 4.0 0.00 0.00 0.00 56 1017.7
20260902072242 88 315 3.0 4.0 0.00 0.00 0.00 57 1017.9
20260902072046 88 292 2.0 4.0 0.00 0.00 0.00 57 1018.0
20260902071842 88 292 2.0 4.0 0.00 0.00 0.00 57 1017.8
20260902071642 88 292 2.0 4.0 0.00 0.00 0.00 58 1017.9
20260902071444 89 315 2.0 4.0 0.00 0.00 0.00 57 1017.8
20260902071242 89 292 2.0 2.0 0.00 0.00 0.00 57 1017.8
20260902071049 89 292 1.0 2.0 0.00 0.00 0.00 57 1017.9
20260902070843 88 315 1.0 2.0 0.00 0.00 0.00 58 1017.8
20260902070644 88 292 1.0 2.0 0.00 0.00 0.00 58 1017.7
20260902070446 88 315 2.0 4.0 0.00 0.00 0.00 59 1017.5
20260902070243 88 292 2.0 4.0 0.00 0.00 0.00 58 1017.9
20260902070059 87 292 2.0 2.0 0.00 0.00 0.00 59 1017.7
20260902065842 87 315 0.0 0.0 0.00 0.00 0.00 61 1017.7
20260902065343 85 292 2.0 2.0 0.00 0.00 0.00 62 1017.8
20260902064744 85 292 2.0 2.0 0.00 0.00 0.00 63 1017.8
20260902064549 85 292 0.0 2.0 0.00 0.00 0.00 64 1017.8
20260902064343 84 270 2.0 2.0 0.00 0.00 0.00 64 1017.9
20260902064142 84 292 3.0 4.0 0.00 0.00 0.00 64 1017.8
20260902063944 84 292 3.0 4.0 0.00 0.00 0.00 64 1017.9
20260902063742 84 315 2.0 4.0 0.00 0.00 0.00 65 1018.0
20260902063546 83 292 3.0 4.0 0.00 0.00 0.00 65 1018.1
20260902063344 83 270 3.0 4.0 0.00 0.00 0.00 65 1018.0
20260902063142 83 292 4.0 4.0 0.00 0.00 0.00 65 1017.8
20260902062944 83 292 3.0 4.0 0.00 0.00 0.00 66 1017.8
20260902062742 83 315 3.0 4.0 0.00 0.00 0.00 66 1017.7
20260902062551 83 315 4.0 6.0 0.00 0.00 0.00 66 1017.9
20260902062143 82 292 3.0 4.0 0.00 0.00 0.00 66 1017.8
20260902061943 82 248 4.0 6.0 0.00 0.00 0.00 66 1018.0
20260902061742 82 270 4.0 6.0 0.00 0.00 0.00 66 1017.8
20260902061549 82 248 5.0 7.0 0.00 0.00 0.00 66 1017.8
20260902061343 82 270 4.0 4.0 0.00 0.00 0.00 66 1017.7
20260902061143 82 292 3.0 4.0 0.00 0.00 0.00 67 1017.8
20260902060946 82 270 3.0 4.0 0.00 0.00 0.00 67 1017.9
20260902060547 82 292 2.0 2.0 0.00 0.00 0.00 68 1017.8
20260902060343 82 292 2.0 4.0 0.00 0.00 0.00 68 1017.8
20260902060142 81 292 2.0 2.0 0.00 0.00 0.00 69 1017.6
20260902055744 81 315 3.0 4.0 0.00 0.00 0.00 69 1017.8
20260902055548 81 292 2.0 4.0 0.00 0.00 0.00 70 1017.8
20260902055342 81 292 4.0 4.0 0.00 0.00 0.00 70 1017.7
20260902055144 80 292 2.0 4.0 0.00 0.00 0.00 71 1017.5
20260902054943 80 292 4.0 4.0 0.00 0.00 0.00 71 1017.7
20260902054743 80 292 4.0 4.0 0.00 0.00 0.00 71 1017.7
20260902054550 80 315 3.0 4.0 0.00 0.00 0.00 71 1017.7
20260902054142 79 292 2.0 2.0 0.00 0.00 0.00 73 1017.7
20260902053946 79 292 2.0 2.0 0.00 0.00 0.00 73 1017.6
20260902053545 79 292 2.0 4.0 0.00 0.00 0.00 73 1017.8
20260902053343 79 292 2.0 2.0 0.00 0.00 0.00 74 1017.9
20260902053142 79 315 3.0 4.0 0.00 0.00 0.00 73 1017.8
20260902052943 79 292 3.0 4.0 0.00 0.00 0.00 74 1017.8
20260902052550 78 315 3.0 4.0 0.00 0.00 0.00 74 1017.6
20260902052343 78 292 3.0 4.0 0.00 0.00 0.00 74 1017.8
20260902052142 78 292 4.0 4.0 0.00 0.00 0.00 74 1017.8
20260902051944 78 248 3.0 4.0 0.00 0.00 0.00 74 1017.8
20260902051742 78 315 3.0 4.0 0.00 0.00 0.00 75 1017.6
20260902051344 77 315 4.0 6.0 0.00 0.00 0.00 76 1017.6
20260902051141 77 315 4.0 6.0 0.00 0.00 0.00 76 1017.5
20260902050945 77 292 3.0 4.0 0.00 0.00 0.00 76 1017.6
20260902050743 77 292 4.0 4.0 0.00 0.00 0.00 76 1017.8
20260902050547 76 292 4.0 6.0 0.00 0.00 0.00 77 1017.7
20260902050142 76 292 2.0 4.0 0.00 0.00 0.00 77 1017.7
20260902045944 76 292 2.0 4.0 0.00 0.00 0.00 77 1017.5
20260902045548 76 292 2.0 4.0 0.00 0.00 0.00 77 1017.5
20260902045342 76 292 3.0 4.0 0.00 0.00 0.00 77 1017.6
20260902045143 76 292 3.0 4.0 0.00 0.00 0.00 77 1017.6
20260902044944 76 270 4.0 6.0 0.00 0.00 0.00 77 1017.5
20260902044549 75 292 4.0 6.0 0.00 0.00 0.00 78 1017.5
20260902044148 75 292 2.0 4.0 0.00 0.00 0.00 79 1017.4
20260902043945 75 292 2.0 4.0 0.00 0.00 0.00 79 1017.4
20260902043743 75 292 2.0 4.0 0.00 0.00 0.00 79 1017.5
20260902043547 75 292 2.0 4.0 0.00 0.00 0.00 80 1017.6
20260902043343 75 292 2.0 2.0 0.00 0.00 0.00 80 1017.3
20260902043142 75 315 2.0 2.0 0.00 0.00 0.00 79 1017.4
20260902042942 75 315 2.0 4.0 0.00 0.00 0.00 79 1017.4
20260902042742 75 292 2.0 2.0 0.00 0.00 0.00 79 1017.5
20260902042142 75 315 2.0 4.0 0.00 0.00 0.00 79 1017.2
20260902041942 75 292 2.0 4.0 0.00 0.00 0.00 79 1017.2
20260902041743 75 315 2.0 4.0 0.00 0.00 0.00 79 1017.3
20260902041605 75 292 2.0 4.0 0.00 0.00 0.00 79 1017.2
20260902041342 75 315 2.0 4.0 0.00 0.00 0.00 79 1017.2
20260902040944 75 315 3.0 4.0 0.00 0.00 0.00 79 1017.6
20260902040742 75 315 2.0 4.0 0.00 0.00 0.00 79 1017.3
20260902040546 75 292 2.0 2.0 0.00 0.00 0.00 79 1017.2
20260902040344 75 292 0.0 2.0 0.00 0.00 0.00 78 1017.3
20260902040143 75 292 0.0 0.0 0.00 0.00 0.00 78 1017.3
20260902035943 76 292 1.0 2.0 0.00 0.00 0.00 78 1017.1
20260902035743 76 292 2.0 2.0 0.00 0.00 0.00 78 1017.2
20260902035548 76 270 2.0 2.0 0.00 0.00 0.00 78 1017.2
20260902035342 76 248 2.0 4.0 0.00 0.00 0.00 78 1017.0
20260902035142 76 270 2.0 2.0 0.00 0.00 0.00 77 1017.3
20260902034943 76 270 2.0 4.0 0.00 0.00 0.00 77 1017.1
20260902034549 76 292 1.0 2.0 0.00 0.00 0.00 77 1017.2
20260902034343 76 292 2.0 2.0 0.00 0.00 0.00 77 1017.2
20260902034143 76 292 2.0 4.0 0.00 0.00 0.00 78 1017.2
20260902033945 76 292 2.0 4.0 0.00 0.00 0.00 78 1017.1
20260902033545 75 292 2.0 4.0 0.00 0.00 0.00 79 1017.3
20260902033341 75 292 2.0 4.0 0.00 0.00 0.00 79 1017.2
20260902033143 75 270 2.0 2.0 0.00 0.00 0.00 79 1017.2
20260902032943 75 270 2.0 4.0 0.00 0.00 0.00 79 1017.1
20260902032742 75 270 2.0 4.0 0.00 0.00 0.00 79 1017.1
20260902032547 75 270 3.0 4.0 0.00 0.00 0.00 79 1017.1
20260902032343 75 270 2.0 4.0 0.00 0.00 0.00 79 1017.1
20260902032142 75 248 3.0 4.0 0.00 0.00 0.00 78 1017.1
20260902031942 76 270 3.0 4.0 0.00 0.00 0.00 78 1017.2
20260902031742 76 248 2.0 4.0 0.00 0.00 0.00 77 1017.2
20260902031549 76 270 2.0 2.0 0.00 0.00 0.00 77 1017.4
20260902031342 76 248 2.0 2.0 0.00 0.00 0.00 77 1017.1
20260902031143 76 270 1.0 2.0 0.00 0.00 0.00 77 1017.3
20260902030546 76 270 2.0 2.0 0.00 0.00 0.00 78 1017.1
20260902030342 76 270 2.0 4.0 0.00 0.00 0.00 78 1017.3
20260902030142 76 292 2.0 2.0 0.00 0.00 0.00 77 1017.2
20260902025943 76 292 2.0 2.0 0.00 0.00 0.00 77 1017.4
20260902025743 76 315 2.0 4.0 0.00 0.00 0.00 77 1017.1
20260902025550 76 270 3.0 4.0 0.00 0.00 0.00 77 1017.2
20260902025342 76 292 3.0 4.0 0.00 0.00 0.00 78 1017.4
20260902024743 75 270 2.0 4.0 0.00 0.00 0.00 78 1017.3
20260902024549 76 292 3.0 4.0 0.00 0.00 0.00 78 1017.5
20260902024342 76 292 3.0 4.0 0.00 0.00 0.00 78 1017.3
20260902024146 76 292 2.0 4.0 0.00 0.00 0.00 78 1017.3
20260902023947 76 270 2.0 4.0 0.00 0.00 0.00 77 1017.2
20260902023545 76 292 2.0 4.0 0.00 0.00 0.00 77 1017.3
20260902023342 76 248 2.0 4.0 0.00 0.00 0.00 77 1017.1
20260902023143 76 292 2.0 2.0 0.00 0.00 0.00 76 1017.1
20260902022944 76 270 2.0 4.0 0.00 0.00 0.00 76 1017.2
20260902022745 76 292 3.0 4.0 0.00 0.00 0.00 76 1017.2
20260902022547 76 292 3.0 4.0 0.00 0.00 0.00 76 1017.3
20260902022344 76 292 4.0 7.0 0.00 0.00 0.00 76 1017.3
20260902022144 76 270 3.0 4.0 0.00 0.00 0.00 76 1017.3
20260902021945 76 270 4.0 6.0 0.00 0.00 0.00 76 1017.3
20260902021743 76 248 2.0 4.0 0.00 0.00 0.00 76 1017.4
20260902021551 77 292 2.0 4.0 0.00 0.00 0.00 75 1017.3
20260902021343 77 270 2.0 4.0 0.00 0.00 0.00 75 1017.2
20260902021146 77 270 2.0 4.0 0.00 0.00 0.00 74 1017.3
20260902020742 78 292 2.0 4.0 0.00 0.00 0.00 74 1017.4
20260902020343 78 292 3.0 4.0 0.00 0.00 0.00 73 1017.4
20260902020144 78 292 3.0 4.0 0.00 0.00 0.00 73 1017.5
20260902015945 78 315 3.0 4.0 0.00 0.00 0.00 73 1017.3
20260902015744 78 270 2.0 2.0 0.00 0.00 0.00 72 1017.4
20260902015550 78 292 3.0 4.0 0.00 0.00 0.00 72 1017.3
20260902015343 79 292 3.0 4.0 0.00 0.00 0.00 72 1017.3
20260902015142 79 270 3.0 4.0 0.00 0.00 0.00 71 1017.2
20260902014942 79 292 4.0 7.0 0.00 0.00 0.00 71 1017.4
20260902014744 79 270 4.0 4.0 0.00 0.00 0.00 71 1017.4
20260902014550 79 292 4.0 7.0 0.00 0.00 0.00 71 1017.6
20260902014144 79 270 3.0 4.0 0.00 0.00 0.00 71 1017.3
20260902013949 79 270 5.0 7.0 0.00 0.00 0.00 71 1017.4
20260902013742 79 292 4.0 6.0 0.00 0.00 0.00 71 1017.3
20260902013548 79 315 5.0 7.0 0.00 0.00 0.00 71 1017.4
20260902013143 79 292 4.0 7.0 0.00 0.00 0.00 72 1017.5
20260902012942 79 292 4.0 7.0 0.00 0.00 0.00 72 1017.4
20260902012345 79 292 4.0 8.0 0.00 0.00 0.00 71 1017.3
20260902012142 79 292 4.0 6.0 0.00 0.00 0.00 71 1017.4
20260902011742 79 292 4.0 6.0 0.00 0.00 0.00 72 1017.3
20260902011549 79 292 3.0 6.0 0.00 0.00 0.00 72 1017.3
20260902011346 78 270 4.0 7.0 0.00 0.00 0.00 72 1017.3
20260902011143 78 270 4.0 4.0 0.00 0.00 0.00 73 1017.4
20260902010944 78 270 4.0 6.0 0.00 0.00 0.00 73 1017.3
20260902010743 78 292 4.0 4.0 0.00 0.00 0.00 73 1017.3
20260902010548 78 292 4.0 4.0 0.00 0.00 0.00 73 1017.3
20260902010344 78 292 4.0 6.0 0.00 0.00 0.00 73 1017.4
20260902010142 78 315 3.0 4.0 0.00 0.00 0.00 73 1017.6
20260902005942 78 292 4.0 4.0 0.00 0.00 0.00 73 1017.4
20260902005742 78 292 3.0 6.0 0.00 0.00 0.00 73 1017.5
20260902005549 78 292 3.0 4.0 0.00 0.00 0.00 73 1017.4
20260902005343 79 315 2.0 4.0 0.00 0.00 0.00 72 1017.5
20260902005143 79 292 4.0 6.0 0.00 0.00 0.00 72 1017.4
20260902004550 78 292 5.0 7.0 0.00 0.00 0.00 73 1017.5
20260902004343 78 292 4.0 6.0 0.00 0.00 0.00 73 1017.5
20260902003945 78 292 4.0 7.0 0.00 0.00 0.00 74 1017.4
20260902003547 78 292 3.0 4.0 0.00 0.00 0.00 74 1017.5
20260902003344 78 292 4.0 4.0 0.00 0.00 0.00 74 1017.6
20260902003144 78 292 3.0 4.0 0.00 0.00 0.00 73 1017.5
20260902002944 78 315 3.0 6.0 0.00 0.00 0.00 73 1017.6
20260902002742 79 292 3.0 4.0 0.00 0.00 0.00 73 1017.5
20260902002549 79 270 4.0 6.0 0.00 0.00 0.00 73 1017.6
20260902002344 78 292 4.0 6.0 0.00 0.00 0.00 73 1017.5
20260902002143 78 270 4.0 4.0 0.00 0.00 0.00 73 1017.5
20260902001944 78 292 4.0 7.0 0.00 0.00 0.00 73 1017.7
20260902001744 78 315 4.0 6.0 0.00 0.00 0.00 73 1017.7
20260902001550 78 292 4.0 4.0 0.00 0.00 0.00 73 1017.5
20260902001345 78 292 4.0 4.0 0.00 0.00 0.00 73 1017.6
20260902001144 78 315 4.0 6.0 0.00 0.00 0.00 73 1017.3
20260902000548 79 315 3.0 4.0 0.00 0.00 0.00 73 1017.5
20260902000344 79 315 3.0 4.0 0.00 0.00 0.00 73 1017.5
20260902000145 79 315 3.0 4.0 0.00 0.00 0.00 73 1017.5
20260901235944 79 292 3.0 4.0 0.00 0.00 0.00 73 1017.5
20260901235743 79 292 4.0 4.0 0.00 0.00 0.00 73 1017.5
20260901235549 79 315 3.0 4.0 0.00 0.00 0.00 72 1017.5
20260901235344 79 292 3.0 4.0 0.00 0.00 0.00 72 1017.5
20260901235144 79 292 4.0 7.0 0.00 0.00 0.00 72 1017.6
20260901234944 79 270 4.0 7.0 0.00 0.00 0.00 72 1017.4
20260901234742 79 270 4.0 6.0 0.00 0.00 0.00 72 1017.6
20260901234345 79 292 4.0 4.0 0.00 0.00 0.00 73 1017.6
20260901234143 79 248 4.0 6.0 0.00 0.00 0.00 73 1017.4
20260901233944 79 270 4.0 7.0 0.00 0.00 0.00 72 1017.5
20260901233742 80 270 3.0 4.0 0.00 0.00 0.00 71 1017.5
20260901233344 80 292 3.0 4.0 0.00 0.00 0.00 71 1017.7
20260901233143 80 270 4.0 6.0 0.00 0.00 0.00 71 1017.4
20260901232943 80 292 2.0 4.0 0.00 0.00 0.00 71 1017.4
20260901232743 80 292 3.0 6.0 0.00 0.00 0.00 71 1017.5
20260901232343 80 270 3.0 6.0 0.00 0.00 0.00 71 1017.5
20260901232143 80 248 3.0 4.0 0.00 0.00 0.00 71 1017.6
20260901231942 80 270 3.0 4.0 0.00 0.00 0.00 71 1017.7
20260901231742 80 292 2.0 4.0 0.00 0.00 0.00 71 1017.6
20260901231549 80 292 2.0 4.0 0.00 0.00 0.00 71 1017.4
20260901231344 80 292 2.0 6.0 0.00 0.00 0.00 70 1017.4
20260901231143 80 270 2.0 4.0 0.00 0.00 0.00 70 1017.6
20260901230944 80 270 2.0 4.0 0.00 0.00 0.00 70 1017.5
20260901230743 80 270 3.0 4.0 0.00 0.00 0.00 70 1017.5
20260901230545 80 292 3.0 4.0 0.00 0.00 0.00 70 1017.5
20260901230343 80 292 3.0 4.0 0.00 0.00 0.00 70 1017.6
20260901230143 81 292 2.0 4.0 0.00 0.00 0.00 69 1017.6
20260901225942 81 292 3.0 4.0 0.00 0.00 0.00 69 1017.3
20260901225742 81 270 3.0 4.0 0.00 0.00 0.00 69 1017.4
20260901225548 81 292 3.0 4.0 0.00 0.00 0.00 69 1017.3
20260901225344 81 292 4.0 6.0 0.00 0.00 0.00 69 1017.5
20260901225143 80 292 4.0 4.0 0.00 0.00 0.00 69 1017.5
20260901224943 80 292 4.0 6.0 0.00 0.00 0.00 70 1017.4
20260901224742 80 292 4.0 4.0 0.00 0.00 0.00 70 1017.5
20260901224548 80 292 3.0 4.0 0.00 0.00 0.00 71 1017.5
20260901224344 80 315 3.0 4.0 0.00 0.00 0.00 71 1017.6
20260901224142 80 292 3.0 4.0 0.00 0.00 0.00 71 1017.5
20260901223945 79 292 3.0 4.0 0.00 0.00 0.00 71 1017.5
20260901223742 79 292 3.0 4.0 0.00 0.00 0.00 72 1017.5
20260901223546 79 292 4.0 4.0 0.00 0.00 0.00 72 1017.7
20260901223344 79 292 3.0 4.0 0.00 0.00 0.00 72 1017.6
20260901223143 79 315 4.0 4.0 0.00 0.00 0.00 72 1017.7
20260901222942 79 292 3.0 4.0 0.00 0.00 0.00 73 1017.6
20260901222549 79 292 2.0 4.0 0.00 0.00 0.00 73 1017.8
20260901222344 79 270 2.0 2.0 0.00 0.00 0.00 73 1017.7
20260901222143 79 292 2.0 4.0 0.00 0.00 0.00 73 1017.7
20260901221943 79 292 3.0 4.0 0.00 0.00 0.00 73 1017.7
20260901221549 79 270 2.0 2.0 0.00 0.00 0.00 73 1017.4
20260901221343 80 292 2.0 2.0 0.00 0.00 0.00 72 1017.6
20260901221144 80 292 2.0 2.0 0.00 0.00 0.00 72 1017.6
20260901220946 80 292 2.0 2.0 0.00 0.00 0.00 72 1017.5
20260901220743 80 292 2.0 2.0 0.00 0.00 0.00 72 1017.7
20260901220345 80 292 2.0 2.0 0.00 0.00 0.00 71 1017.5
20260901220150 80 292 2.0 4.0 0.00 0.00 0.00 71 1017.3
20260901215943 80 292 2.0 2.0 0.00 0.00 0.00 71 1017.3
20260901215743 80 292 2.0 4.0 0.00 0.00 0.00 71 1017.4
20260901215142 80 292 2.0 4.0 0.00 0.00 0.00 71 1017.6
20260901214742 81 292 2.0 2.0 0.00 0.00 0.00 70 1017.4
20260901214548 81 292 2.0 2.0 0.00 0.00 0.00 70 1017.4
20260901214344 81 292 2.0 4.0 0.00 0.00 0.00 70 1017.4
20260901213945 81 270 2.0 4.0 0.00 0.00 0.00 69 1017.6
20260901213742 81 292 3.0 4.0 0.00 0.00 0.00 69 1017.5
20260901213144 81 270 2.0 4.0 0.00 0.00 0.00 69 1017.5
20260901212943 81 292 2.0 4.0 0.00 0.00 0.00 69 1017.3
20260901212548 81 270 3.0 4.0 0.00 0.00 0.00 69 1017.5
20260901212346 81 292 2.0 4.0 0.00 0.00 0.00 69 1017.6
20260901211743 81 292 3.0 4.0 0.00 0.00 0.00 69 1017.3
20260901211549 81 292 2.0 2.0 0.00 0.00 0.00 68 1017.4
20260901211144 82 292 2.0 4.0 0.00 0.00 0.00 68 1017.3
20260901210945 82 270 2.0 4.0 0.00 0.00 0.00 67 1017.5
20260901210742 82 270 2.0 2.0 0.00 0.00 0.00 67 1017.4
20260901210546 81 270 2.0 4.0 0.00 0.00 0.00 67 1017.4
20260901210343 81 270 2.0 2.0 0.00 0.00 0.00 67 1017.3
20260901210143 81 292 2.0 2.0 0.00 0.00 0.00 66 1017.4
20260901205943 81 292 2.0 2.0 0.00 0.00 0.00 65 1017.3
20260901205742 82 292 1.0 2.0 0.00 0.00 0.00 64 1017.2
20260901205548 82 292 2.0 2.0 0.00 0.00 0.00 64 1017.4
20260901205343 82 270 1.0 2.0 0.00 0.00 0.00 62 1017.5
20260901205142 82 270 2.0 2.0 0.00 0.00 0.00 61 1017.2
20260901204943 82 270 2.0 2.0 0.00 0.00 0.00 60 1017.4
20260901204548 83 270 2.0 2.0 0.00 0.00 0.00 58 1017.4
20260901204344 83 270 2.0 2.0 0.00 0.00 0.00 55 1017.3
20260901204141 83 292 1.0 2.0 0.00 0.00 0.00 56 1017.2
20260901203944 83 292 0.0 0.0 0.00 0.00 0.00 55 1017.3
20260901203742 83 292 1.0 2.0 0.00 0.00 0.00 54 1017.1
20260901203547 83 292 0.0 2.0 0.00 0.00 0.00 54 1017.2
20260901203344 84 315 0.0 0.0 0.00 0.00 0.00 55 1017.2
20260901203142 84 315 0.0 2.0 0.00 0.00 0.00 55 1017.1
20260901202943 84 292 1.0 2.0 0.00 0.00 0.00 53 1017.3
20260901202742 84 292 1.0 2.0 0.00 0.00 0.00 54 1017.4
20260901202548 84 292 0.0 2.0 0.00 0.00 0.00 55 1017.3
20260901202345 83 315 1.0 2.0 0.00 0.00 0.00 54 1017.3
20260901201942 83 315 1.0 2.0 0.00 0.00 0.00 56 1017.2
20260901201742 83 292 0.0 0.0 0.00 0.00 0.00 56 1017.4
20260901201548 82 315 2.0 2.0 0.00 0.00 0.00 56 1017.4
20260901201345 82 270 2.0 2.0 0.00 0.00 0.00 61 1017.4
20260901201144 82 270 2.0 4.0 0.00 0.00 0.00 63 1017.4
20260901200945 82 292 2.0 2.0 0.00 0.00 0.00 64 1017.3
20260901200142 81 248 2.0 2.0 0.00 0.00 0.00 66 1017.2
20260901195943 81 270 2.0 2.0 0.00 0.00 0.00 67 1017.3
20260901195742 81 248 2.0 2.0 0.00 0.00 0.00 67 1017.3
20260901195548 82 270 1.0 2.0 0.00 0.00 0.00 67 1017.3
20260901195345 82 270 0.0 0.0 0.00 0.00 0.00 66 1017.1
20260901195144 81 270 0.0 0.0 0.00 0.00 0.00 65 1017.3
20260901194742 81 315 0.0 0.0 0.00 0.00 0.00 66 1017.1
20260901194549 82 315 0.0 0.0 0.00 0.00 0.00 67 1017.2
20260901194141 82 315 0.0 0.0 0.00 0.00 0.00 67 1017.1
20260901193945 82 315 0.0 0.0 0.00 0.00 0.00 67 1017.1
20260901193742 82 338 0.0 0.0 0.00 0.00 0.00 66 1017.2
20260901193545 82 315 0.0 0.0 0.00 0.00 0.00 66 1017.0
20260901193343 83 338 0.0 0.0 0.00 0.00 0.00 65 1017.1
20260901193144 83 338 0.0 0.0 0.00 0.00 0.00 65 1017.2
20260901192943 83 338 0.0 0.0 0.00 0.00 0.00 65 1017.2
20260901192548 83 338 0.0 0.0 0.00 0.00 0.00 64 1017.2
20260901192344 83 338 0.0 0.0 0.00 0.00 0.00 63 1017.0
20260901192144 83 0 0.0 0.0 0.00 0.00 0.00 64 1017.2
20260901191742 83 315 0.0 0.0 0.00 0.00 0.00 64 1017.2
20260901191549 83 315 0.0 0.0 0.00 0.00 0.00 64 1017.2
20260901191344 83 315 1.0 2.0 0.00 0.00 0.00 63 1017.0
20260901191143 83 315 1.0 2.0 0.00 0.00 0.00 63 1017.1
20260901190944 84 292 1.0 2.0 0.00 0.00 0.00 63 1017.1
20260901190743 84 292 0.0 2.0 0.00 0.00 0.00 63 1017.3
20260901190545 84 315 1.0 2.0 0.00 0.00 0.00 63 1017.0
20260901190346 84 315 0.0 0.0 0.00 0.00 0.00 62 1017.1
20260901190142 84 315 0.0 0.0 0.00 0.00 0.00 62 1017.1
20260901185942 85 315 1.0 2.0 0.00 0.00 0.00 61 1017.1
20260901185741 85 315 1.0 2.0 0.00 0.00 0.00 60 1017.1
20260901185549 85 315 1.0 2.0 0.00 0.00 0.00 59 1017.0
20260901185343 85 315 1.0 2.0 0.00 0.00 0.00 57 1017.1
20260901185143 85 315 1.0 2.0 0.00 0.00 0.00 56 1017.1
20260901184943 86 315 0.0 0.0 0.00 0.00 0.00 54 1016.9
20260901184743 86 315 0.0 0.0 0.00 0.00 0.00 53 1016.9
20260901184548 86 315 0.0 0.0 0.00 0.00 0.00 53 1016.9
20260901184344 86 315 0.0 0.0 0.00 0.00 0.00 53 1016.8
20260901184149 86 315 1.0 2.0 0.00 0.00 0.00 52 1016.9
20260901183546 86 0 0.0 2.0 0.00 0.00 0.00 54 1016.8
20260901183143 87 338 1.0 2.0 0.00 0.00 0.00 55 1016.8
20260901182943 87 338 1.0 2.0 0.00 0.00 0.00 55 1016.8
20260901182142 87 315 2.0 2.0 0.00 0.00 0.00 55 1016.7
20260901181742 87 0 2.0 2.0 0.00 0.00 0.00 55 1016.7
20260901181052 86 292 2.0 2.0 0.00 0.00 0.00 58 1016.5
20260901180843 85 338 2.0 4.0 0.00 0.00 0.00 60 1016.5
20260901180643 85 68 1.0 2.0 0.00 0.00 0.00 62 1016.6
20260901180444 85 22 1.0 2.0 0.00 0.00 0.00 64 1016.4
20260901180243 85 315 0.0 0.0 0.00 0.00 0.00 65 1016.6
20260901175843 86 315 0.0 2.0 0.00 0.00 0.00 65 1016.2
20260901175642 86 315 0.0 0.0 0.00 0.00 0.00 65 1016.5
20260901175443 86 338 0.0 0.0 0.00 0.00 0.00 64 1016.4
20260901175243 86 22 1.0 2.0 0.00 0.00 0.00 64 1016.2
20260901175046 86 22 0.0 2.0 0.00 0.00 0.00 64 1016.1
20260901174843 86 315 0.0 0.0 0.00 0.00 0.00 63 1016.2
20260901174643 86 338 1.0 2.0 0.00 0.00 0.00 64 1016.1
20260901174443 86 315 0.0 0.0 0.00 0.00 0.00 65 1016.2
20260901174242 87 0 0.0 2.0 0.00 0.00 0.00 64 1016.2
20260901174050 87 315 0.0 0.0 0.00 0.00 0.00 63 1016.2
20260901173843 87 315 0.0 0.0 0.00 0.00 0.00 61 1016.2
20260901173643 87 315 0.0 0.0 0.00 0.00 0.00 62 1016.2
20260901173442 87 315 0.0 0.0 0.00 0.00 0.00 62 1016.3
20260901173243 87 315 0.0 0.0 0.00 0.00 0.00 61 1016.2
20260901173050 87 315 0.0 0.0 0.00 0.00 0.00 59 1016.0
20260901172843 87 315 0.0 0.0 0.00 0.00 0.00 60 1016.0
20260901172643 87 315 0.0 0.0 0.00 0.00 0.00 61 1016.0
20260901172442 87 315 0.0 0.0 0.00 0.00 0.00 63 1016.1
20260901172244 88 292 0.0 0.0 0.00 0.00 0.00 62 1016.1
20260901172046 88 315 0.0 0.0 0.00 0.00 0.00 61 1016.2
20260901171843 88 292 0.0 0.0 0.00 0.00 0.00 61 1016.0
20260901171643 88 292 0.0 0.0 0.00 0.00 0.00 60 1016.0
20260901171443 89 315 0.0 0.0 0.00 0.00 0.00 60 1015.7
20260901171051 89 45 0.0 0.0 0.00 0.00 0.00 57 1015.6
20260901170843 89 22 0.0 0.0 0.00 0.00 0.00 57 1015.5
20260901170644 89 0 0.0 0.0 0.00 0.00 0.00 57 1015.6
20260901165845 90 315 0.0 0.0 0.00 0.00 0.00 56 1015.7
20260901165444 90 270 0.0 0.0 0.00 0.00 0.00 55 1015.5
20260901165243 90 248 1.0 2.0 0.00 0.00 0.00 55 1015.8
20260901164843 90 180 0.0 0.0 0.00 0.00 0.00 55 1015.8
20260901164643 90 158 1.0 2.0 0.00 0.00 0.00 55 1015.7
20260901164442 90 158 2.0 2.0 0.00 0.00 0.00 55 1015.7
20260901164243 90 180 2.0 4.0 0.00 0.00 0.00 54 1015.5
20260901164051 90 180 2.0 2.0 0.00 0.00 0.00 54 1015.5
20260901163845 90 135 1.0 2.0 0.00 0.00 0.00 54 1015.6
20260901163644 90 158 1.0 2.0 0.00 0.00 0.00 54 1015.4
20260901163444 90 270 0.0 2.0 0.00 0.00 0.00 54 1015.6
20260901163243 90 270 0.0 2.0 0.00 0.00 0.00 54 1015.6
20260901163049 90 180 2.0 2.0 0.00 0.03 0.00 54 1015.6
20260901162643 90 225 0.0 2.0 0.00 0.07 0.00 53 1015.6
20260901162442 90 135 2.0 2.0 0.00 0.11 0.00 53 1015.5
20260901162243 91 202 1.0 2.0 0.00 0.11 0.00 53 1015.6
20260901161844 91 180 2.0 2.0 0.00 0.11 0.00 53 1015.4
20260901161643 90 202 1.0 2.0 0.00 0.11 0.00 54 1015.7
20260901161444 90 158 2.0 4.0 0.00 0.11 0.00 54 1015.4
20260901161051 90 180 2.0 4.0 0.00 0.11 0.00 53 1015.4
20260901160844 90 225 1.0 2.0 0.00 0.11 0.00 53 1015.6
20260901160642 90 158 2.0 2.0 0.00 0.11 0.00 53 1015.5
20260901160442 90 225 2.0 2.0 0.00 0.11 0.00 53 1015.5
20260901160049 90 158 3.0 4.0 0.00 0.11 0.00 53 1015.2
20260901155843 90 112 1.0 4.0 0.00 0.11 0.00 54 1015.5
20260901155643 90 180 3.0 4.0 0.00 0.11 0.00 54 1015.4
20260901155048 90 158 4.0 4.0 0.00 0.11 0.00 54 1015.6
20260901154644 90 180 2.0 4.0 0.00 0.11 0.00 54 1015.5
20260901154443 90 180 3.0 4.0 0.00 0.11 0.00 54 1015.4
20260901154244 90 202 2.0 4.0 0.00 0.11 0.00 54 1015.6
20260901154048 90 202 2.0 4.0 0.00 0.11 0.00 54 1015.5
20260901153844 90 202 2.0 4.0 0.00 0.11 0.00 55 1015.3
20260901153242 90 90 2.0 2.0 0.00 0.11 0.00 55 1015.5
20260901153050 90 158 3.0 4.0 0.00 0.11 0.00 55 1015.5
20260901152843 90 112 3.0 4.0 0.00 0.11 0.00 55 1015.3
20260901152644 91 158 3.0 4.0 0.00 0.11 0.00 55 1015.3
20260901152448 91 180 2.0 6.0 0.00 0.11 0.00 55 1015.2
20260901152242 91 158 2.0 2.0 0.00 0.11 0.00 56 1015.4
20260901151843 91 270 4.0 6.0 0.00 0.11 0.00 57 1015.3
20260901151244 90 270 4.0 4.0 0.00 0.11 0.00 57 1015.5
20260901151049 91 135 3.0 4.0 0.00 0.11 0.00 57 1015.4
20260901150845 91 158 4.0 6.0 0.00 0.11 0.00 57 1015.3
20260901150643 90 180 2.0 4.0 0.00 0.11 0.00 58 1015.3
20260901150443 90 202 4.0 4.0 0.00 0.11 0.00 58 1015.2
20260901150243 91 158 5.0 7.0 0.00 0.11 0.00 58 1015.3
20260901145842 91 158 3.0 6.0 0.00 0.11 0.00 55 1015.2
20260901145441 92 158 4.0 6.0 0.00 0.11 0.00 57 1015.2
20260901145242 92 180 4.0 7.0 0.00 0.11 0.00 56 1015.2
20260901145047 93 180 3.0 6.0 0.00 0.11 0.00 56 1015.3
20260901144844 94 180 4.0 7.0 0.00 0.11 0.00 55 1015.2
20260901144643 93 135 2.0 4.0 0.00 0.11 0.00 53 1015.3
20260901144241 93 135 3.0 6.0 0.00 0.11 0.00 53 1015.1
20260901144052 93 112 3.0 6.0 0.00 0.11 0.00 53 1015.3
20260901143843 93 135 4.0 7.0 0.00 0.11 0.00 54 1015.2
20260901143643 94 112 4.0 7.0 0.00 0.11 0.00 53 1015.2
20260901143443 93 180 3.0 4.0 0.00 0.11 0.00 53 1015.3
20260901143242 94 158 4.0 4.0 0.00 0.11 0.00 53 1015.1
20260901143049 94 180 4.0 7.0 0.00 0.11 0.00 54 1015.2
20260901142644 94 158 4.0 7.0 0.00 0.11 0.00 53 1015.1
20260901142243 94 180 4.0 7.0 0.00 0.11 0.00 54 1014.9
20260901141443 94 180 3.0 6.0 0.00 0.11 0.00 53 1015.0
20260901141244 94 225 3.0 4.0 0.00 0.11 0.00 53 1015.2
20260901141050 94 112 3.0 6.0 0.00 0.11 0.00 53 1014.9
20260901140843 94 112 4.0 6.0 0.00 0.11 0.00 53 1015.0
20260901140643 94 180 4.0 6.0 0.00 0.11 0.00 53 1014.8
20260901140442 94 202 3.0 6.0 0.00 0.11 0.00 53 1014.9
20260901140244 94 180 5.0 7.0 0.00 0.11 0.00 53 1015.1
20260901135842 95 112 3.0 4.0 0.00 0.11 0.00 52 1015.2
20260901135644 95 158 4.0 6.0 0.00 0.11 0.00 52 1015.0
20260901135443 95 158 4.0 7.0 0.00 0.11 0.00 53 1015.1
20260901135243 95 180 3.0 4.0 0.00 0.11 0.00 51 1015.0
20260901135048 94 135 2.0 4.0 0.00 0.11 0.00 52 1015.1
20260901134643 94 90 2.0 4.0 0.00 0.11 0.00 53 1015.1
20260901134444 94 135 4.0 7.0 0.00 0.11 0.00 53 1015.0
20260901134242 94 112 4.0 7.0 0.00 0.11 0.00 50 1015.0
20260901134049 94 135 3.0 4.0 0.00 0.11 0.00 51 1014.9
20260901133843 94 112 6.0 7.0 0.00 0.11 0.00 52 1015.0
20260901133442 95 180 4.0 7.0 0.00 0.11 0.00 52 1015.0
20260901133243 95 112 4.0 8.0 0.00 0.11 0.00 50 1014.9
20260901133048 95 158 2.0 4.0 0.00 0.11 0.00 51 1015.1
20260901132843 95 135 3.0 6.0 0.00 0.11 0.00 50 1015.0
20260901132643 95 112 4.0 6.0 0.00 0.11 0.00 49 1015.2
20260901132442 94 135 3.0 4.0 0.00 0.11 0.00 50 1015.2
20260901132242 94 158 4.0 7.0 0.00 0.11 0.00 50 1015.1
20260901131842 95 90 3.0 4.0 0.00 0.11 0.00 49 1015.2
20260901131647 95 135 5.0 8.0 0.00 0.11 0.00 50 1015.1
20260901131442 94 112 3.0 6.0 0.00 0.11 0.00 49 1015.1
20260901131245 94 158 5.0 8.0 0.00 0.11 0.00 49 1015.2
20260901131049 95 112 6.0 9.0 0.00 0.11 0.00 49 1015.2
20260901130842 95 112 4.0 6.0 0.00 0.11 0.00 48 1015.4
20260901130442 96 112 4.0 7.0 0.00 0.11 0.00 50 1015.2
20260901130242 96 135 2.0 4.0 0.00 0.11 0.00 49 1015.2
20260901130050 96 158 3.0 4.0 0.00 0.11 0.00 49 1015.4
20260901125844 95 135 3.0 6.0 0.00 0.11 0.00 48 1015.3
20260901125642 94 112 4.0 6.0 0.00 0.11 0.00 50 1015.2
20260901125443 95 158 4.0 9.0 0.00 0.11 0.00 51 1015.3
20260901125243 95 90 6.0 7.0 0.00 0.11 0.00 50 1015.2
20260901125045 95 112 2.0 4.0 0.00 0.11 0.00 48 1015.4
20260901124842 95 112 4.0 6.0 0.00 0.11 0.00 49 1015.5
20260901124642 95 90 5.0 7.0 0.00 0.11 0.00 48 1015.2
20260901124442 95 90 4.0 7.0 0.00 0.11 0.00 49 1015.3
20260901124244 95 90 6.0 8.0 0.00 0.11 0.00 50 1015.4
20260901123843 95 68 5.0 8.0 0.00 0.11 0.00 49 1015.6
20260901123642 95 135 3.0 4.0 0.00 0.11 0.00 49 1015.5
20260901123443 94 225 4.0 4.0 0.00 0.11 0.00 49 1015.4
20260901122843 95 112 4.0 7.0 0.00 0.11 0.00 49 1015.4
20260901122643 95 90 4.0 8.0 0.00 0.11 0.00 50 1015.5
20260901122443 95 112 4.0 4.0 0.00 0.11 0.00 50 1015.6
20260901122046 95 112 4.0 6.0 0.00 0.11 0.00 50 1015.5
20260901121843 95 158 3.0 4.0 0.00 0.11 0.00 51 1015.5
20260901121642 94 180 4.0 6.0 0.00 0.11 0.00 52 1015.5
20260901121442 94 112 4.0 6.0 0.00 0.11 0.00 53 1015.6
20260901121244 94 135 5.0 9.0 0.00 0.11 0.00 53 1015.6
20260901121100 94 158 3.0 4.0 0.00 0.11 0.00 52 1015.6
20260901120843 95 135 4.0 7.0 0.00 0.11 0.00 52 1015.7
20260901120641 95 135 4.0 6.0 0.00 0.11 0.00 52 1015.7
20260901120442 94 180 5.0 8.0 0.00 0.11 0.00 52 1015.6
20260901120051 94 135 4.0 6.0 0.00 0.11 0.00 53 1015.6
20260901115843 94 135 4.0 6.0 0.00 0.11 0.00 53 1015.8
20260901115643 94 135 4.0 6.0 0.00 0.11 0.00 53 1015.8
20260901115442 94 158 5.0 7.0 0.00 0.11 0.00 53 1015.7
20260901115244 94 202 4.0 6.0 0.00 0.11 0.00 52 1015.9
20260901114843 94 135 3.0 4.0 0.00 0.11 0.00 51 1015.7
20260901114643 94 248 3.0 4.0 0.00 0.11 0.00 52 1015.8
20260901114442 94 135 3.0 4.0 0.00 0.11 0.00 52 1015.9
20260901114243 94 135 3.0 4.0 0.00 0.11 0.00 53 1015.9
20260901114050 94 202 5.0 8.0 0.00 0.11 0.00 53 1015.9
20260901113844 94 112 4.0 7.0 0.00 0.11 0.00 52 1016.0
20260901113644 93 202 3.0 4.0 0.00 0.11 0.00 53 1015.8
20260901113443 93 202 4.0 8.0 0.00 0.11 0.00 56 1015.8
20260901113244 93 135 4.0 7.0 0.00 0.11 0.00 55 1015.8
20260901113049 93 112 7.0 9.0 0.00 0.11 0.00 55 1016.0
20260901112843 93 90 4.0 8.0 0.00 0.11 0.00 55 1015.8
20260901112644 93 202 4.0 7.0 0.00 0.11 0.00 54 1016.0
20260901112442 93 68 3.0 4.0 0.00 0.11 0.00 53 1015.7
20260901112244 94 112 4.0 6.0 0.00 0.11 0.00 55 1015.8
20260901112046 93 158 4.0 7.0 0.00 0.11 0.00 54 1016.0
20260901111843 93 248 4.0 6.0 0.00 0.11 0.00 55 1016.0
20260901111643 93 158 4.0 7.0 0.00 0.11 0.00 55 1016.1
20260901111442 95 112 4.0 7.0 0.00 0.11 0.00 55 1015.8
20260901111243 96 135 2.0 4.0 0.00 0.11 0.00 52 1015.9
20260901110642 95 202 2.0 4.0 0.00 0.11 0.00 52 1015.9
20260901110443 95 112 4.0 8.0 0.00 0.11 0.00 53 1016.0
20260901110242 95 22 1.0 2.0 0.00 0.11 0.00 47 1015.9
20260901110051 95 90 3.0 6.0 0.00 0.11 0.00 50 1015.9
20260901105844 96 45 2.0 2.0 0.00 0.11 0.00 46 1015.8
20260901105643 97 45 4.0 6.0 0.00 0.11 0.00 44 1015.9
20260901105442 97 292 3.0 6.0 0.00 0.11 0.00 43 1016.0
20260901105242 98 112 2.0 4.0 0.00 0.11 0.00 42 1016.0
20260901105046 98 68 0.0 2.0 0.00 0.11 0.00 42 1016.1
20260901104843 98 22 2.0 4.0 0.00 0.11 0.00 43 1016.1
20260901104642 96 158 0.0 0.0 0.00 0.11 0.00 43 1016.1
20260901104243 95 45 2.0 2.0 0.00 0.11 0.00 44 1016.1
20260901104049 95 45 3.0 4.0 0.00 0.11 0.00 46 1016.3
20260901103641 95 270 2.0 4.0 0.00 0.11 0.00 44 1016.3
20260901103243 96 315 2.0 4.0 0.00 0.11 0.00 44 1016.2
20260901103050 95 158 2.0 2.0 0.00 0.11 0.00 44 1016.3
20260901102842 94 45 0.0 2.0 0.00 0.11 0.00 44 1016.1
20260901102642 96 22 3.0 4.0 0.00 0.11 0.00 44 1016.3
20260901102443 96 45 3.0 4.0 0.00 0.11 0.00 44 1016.1
20260901102046 96 292 1.0 2.0 0.00 0.11 0.00 44 1016.2
20260901101842 94 22 2.0 2.0 0.00 0.11 0.00 46 1016.4
20260901101443 94 338 4.0 6.0 0.00 0.11 0.00 48 1016.4
20260901101243 95 0 4.0 8.0 0.00 0.11 0.00 47 1016.5
20260901101050 94 338 2.0 4.0 0.00 0.11 0.00 49 1016.4
20260901100842 94 22 1.0 2.0 0.00 0.11 0.00 49 1016.6
20260901100644 94 68 2.0 4.0 0.00 0.11 0.00 50 1016.4
20260901100442 94 0 4.0 8.0 0.00 0.11 0.00 50 1016.4
20260901100243 94 270 4.0 7.0 0.00 0.11 0.00 51 1016.5
20260901100050 94 270 4.0 7.0 0.00 0.11 0.00 51 1016.5
20260901095643 93 45 4.0 6.0 0.00 0.11 0.00 51 1016.5
20260901095442 93 22 2.0 4.0 0.00 0.11 0.00 51 1016.4
20260901095243 92 315 2.0 6.0 0.00 0.11 0.00 53 1016.4
20260901095047 92 45 2.0 4.0 0.00 0.11 0.00 53 1016.5
20260901094843 92 22 5.0 8.0 0.00 0.11 0.00 51 1016.5
20260901094644 94 68 4.0 7.0 0.00 0.11 0.00 50 1016.5
20260901094443 94 45 2.0 4.0 0.00 0.11 0.00 50 1016.4
20260901094243 94 338 2.0 4.0 0.00 0.11 0.00 50 1016.5
20260901094049 93 22 2.0 4.0 0.00 0.11 0.00 50 1016.5
20260901093844 93 315 3.0 8.0 0.00 0.11 0.00 50 1016.5
20260901093642 93 315 2.0 4.0 0.00 0.11 0.00 50 1016.5
20260901093443 93 292 1.0 2.0 0.00 0.11 0.00 50 1016.5
20260901093244 93 292 3.0 4.0 0.00 0.11 0.00 52 1016.4
20260901093049 94 68 2.0 4.0 0.00 0.11 0.00 50 1016.7
20260901092842 94 68 2.0 4.0 0.00 0.11 0.00 50 1016.4
20260901092641 93 45 2.0 2.0 0.00 0.11 0.00 51 1016.5
20260901092243 93 0 2.0 4.0 0.00 0.11 0.00 50 1016.6
20260901092045 92 292 2.0 2.0 0.00 0.11 0.00 51 1016.7
20260901091643 92 292 2.0 4.0 0.00 0.11 0.00 50 1016.6
20260901091443 92 292 2.0 4.0 0.00 0.11 0.00 51 1016.4
20260901091243 92 292 2.0 4.0 0.00 0.11 0.00 52 1016.5
20260901091049 92 180 2.0 4.0 0.00 0.11 0.00 53 1016.6
20260901090842 91 45 1.0 2.0 0.00 0.11 0.00 53 1016.5
20260901090641 91 22 3.0 4.0 0.00 0.11 0.00 53 1016.6
20260901090442 91 45 2.0 4.0 0.00 0.11 0.00 53 1016.4
20260901090243 91 292 2.0 4.0 0.00 0.11 0.00 53 1016.4
20260901085843 91 338 4.0 6.0 0.00 0.11 0.00 53 1016.5
20260901085643 92 292 2.0 2.0 0.00 0.11 0.00 51 1016.4
20260901085443 92 292 2.0 6.0 0.00 0.11 0.00 51 1016.6
20260901085243 92 292 1.0 2.0 0.00 0.11 0.00 52 1016.6
20260901084843 92 315 3.0 4.0 0.00 0.11 0.00 52 1016.5
20260901084640 92 315 1.0 2.0 0.00 0.11 0.00 51 1016.6
20260901084441 91 22 2.0 4.0 0.00 0.11 0.00 51 1016.6
20260901084244 91 315 1.0 2.0 0.00 0.11 0.00 51 1016.6
20260901084049 90 315 2.0 4.0 0.00 0.11 0.00 54 1016.8
20260901083843 90 292 4.0 6.0 0.00 0.11 0.00 53 1016.6